Theta_e
349 342 344 342 317 315 306 310 313 314 311 312 315 315 319 322 323 311 338 340 340 346 353 355 360 357 355 354 355 354 352 353 353 353 353 352 351 349 347 347 348 348 349 350 352 352 351 349 349
344 342 337 328 311 302 304 314 314 314 314 315 316 314 316 322 333 333 334 337 338 347 352 353 358 356 352 350 350 351 351 350 350 350 348 346 346 345 345 345 346 345 347 350 353 352 351 350 349
341 340 326 318 311 305 304 311 314 319 316 316 314 315 320 326 333 332 337 338 339 342 349 352 357 354 351 347 346 346 346 346 347 346 345 346 346 346 346 346 344 345 347 350 353 352 351 349 348
329 330 325 313 309 312 312 315 319 320 320 319 315 315 319 333 333 332 339 341 338 338 346 354 354 352 348 345 344 344 344 345 345 345 346 346 347 347 349 346 345 347 348 349 351 350 349 348 347
325 324 312 309 311 314 314 317 324 321 320 320 315 313 317 329 335 335 335 340 338 340 346 348 351 348 345 345 346 346 345 345 346 348 350 350 348 348 347 344 343 344 346 346 347 345 346 344 342
315 319 308 307 309 315 316 318 325 322 322 323 318 317 320 330 333 334 337 340 341 342 344 345 348 347 346 346 348 349 349 350 350 350 350 348 346 346 344 343 341 340 342 342 343 342 340 339 336
312 310 307 309 310 313 317 323 318 319 321 322 324 316 322 326 332 333 336 340 341 342 341 341 341 344 349 349 349 350 351 350 350 349 347 345 344 343 342 341 339 338 337 336 335 335 334 332 330
314 311 306 308 309 310 320 323 326 324 322 330 328 318 317 326 332 332 335 337 338 338 338 335 338 340 340 344 352 352 352 351 348 347 345 343 341 340 338 336 334 333 332 330 329 327 325 327 328
319 305 303 306 310 313 320 317 325 326 323 325 326 324 327 331 332 328 329 331 332 333 334 336 336 338 340 343 349 351 351 347 346 345 345 336 325 326 326 331 331 328 325 324 325 326 324 325 329
308 303 305 313 314 313 313 311 322 319 318 320 322 327 330 331 329 326 327 326 327 328 330 334 335 337 341 346 343 342 343 336 333 333 330 325 321 321 324 326 326 325 323 324 325 321 322 312 303
303 301 308 309 311 311 309 308 324 320 316 322 321 324 328 328 327 325 326 327 326 327 330 332 334 338 341 342 342 341 337 333 329 329 324 323 323 319 315 312 311 311 317 307 307 306 304 302 303
296 302 307 309 311 309 306 309 311 320 321 327 328 326 328 326 326 325 325 325 324 327 329 331 334 339 341 341 340 340 337 328 319 319 321 318 316 312 311 309 306 305 306 303 303 303 302 302 302
296 298 303 304 304 304 305 305 307 316 319 324 326 329 328 326 326 328 326 326 326 327 329 331 337 338 340 339 336 335 320 316 311 310 312 310 309 306 307 304 304 303 303 304 303 302 302 302 302
299 299 300 301 301 303 303 304 305 310 322 322 324 326 327 328 329 329 328 326 326 327 328 332 336 337 339 336 330 322 316 312 310 307 306 306 305 304 304 304 303 304 303 303 302 303 303 302 302
301 295 297 298 300 299 303 299 301 309 314 319 320 321 324 328 330 329 330 327 328 329 328 331 335 338 337 334 326 322 316 312 309 308 305 306 306 305 305 304 304 302 302 304 303 303 303 304 305
297 295 289 296 298 300 299 292 300 305 307 308 316 317 319 327 328 330 331 328 330 330 330 331 337 335 333 329 328 320 316 313 312 311 309 308 309 307 307 305 304 304 304 304 303 303 303 303 302
293 287 289 293 299 298 296 293 299 304 306 306 310 317 319 318 325 327 331 330 330 331 331 334 333 330 325 325 324 322 321 315 312 307 306 307 308 309 306 307 306 307 305 305 304 302 302 302 302
291 290 292 291 296 297 294 292 298 302 305 305 305 316 318 319 323 328 331 331 330 331 334 335 333 326 325 322 321 322 322 321 316 307 306 307 307 307 306 307 305 306 303 303 302 302 302 302 302
296 294 293 296 299 294 293 293 295 298 300 302 304 309 317 319 323 329 330 330 330 333 336 334 331 325 321 319 317 317 320 318 310 308 307 307 306 306 306 306 304 304 303 303 303 302 300 301 301
296 293 291 295 298 294 292 292 295 296 299 302 304 306 311 317 325 327 329 329 330 330 336 332 329 324 322 322 321 322 320 311 309 309 307 307 305 306 306 306 304 304 304 303 303 302 301 302 301
295 293 293 293 296 295 291 289 291 296 297 303 308 312 315 318 320 324 327 328 328 331 336 331 327 324 323 323 322 320 315 308 307 306 305 306 306 306 306 305 305 304 303 303 303 303 302 300 301
292 299 298 295 291 284 290 282 288 292 295 299 306 310 316 318 317 322 326 326 325 330 333 330 326 324 324 322 320 316 312 307 307 306 306 305 306 305 305 305 304 303 303 303 303 305 302 301 299
296 301 297 296 291 287 289 283 286 292 295 298 303 309 315 317 317 319 326 325 327 331 334 331 328 326 324 321 320 316 311 310 313 309 305 304 306 305 305 304 303 303 303 303 303 301 300 300 299
302 299 297 295 292 281 287 286 285 292 295 299 304 310 313 314 315 319 324 329 327 328 334 332 330 328 327 323 318 314 311 309 310 305 304 305 303 305 305 304 303 303 303 302 302 301 300 299 298
301 293 282 279 281 282 292 287 288 298 302 303 304 307 310 312 312 316 319 322 324 330 330 331 329 327 327 324 316 315 312 310 308 304 304 305 303 305 304 304 303 302 301 301 300 299 298 297 295
296 293 284 276 280 284 289 285 293 301 305 306 308 310 310 311 311 313 316 318 322 325 329 329 327 326 324 319 317 315 309 307 306 305 307 305 307 306 304 303 301 301 301 299 298 296 296 294 293
294 293 294 285 287 285 287 291 299 302 303 304 305 305 305 306 310 311 313 316 318 320 322 321 323 321 316 311 311 305 304 305 305 306 305 305 303 304 302 299 297 297 297 296 295 294 293 292 292
296 300 290 289 283 277 286 286 288 297 299 300 300 304 305 307 308 310 312 314 316 314 311 313 312 308 307 307 306 307 306 305 305 303 301 300 301 300 297 297 296 296 295 294 293 292 292 291 290
292 291 295 294 289 285 281 284 296 295 297 296 296 299 301 301 303 303 304 303 302 303 305 305 305 303 304 306 306 305 303 303 301 301 300 300 299 297 296 296 295 295 294 292 291 290 290 290 289
293 290 296 288 287 290 288 285 295 296 297 298 297 299 299 300 300 300 300 300 299 299 301 300 302 305 304 303 301 301 301 298 300 298 297 297 295 295 295 294 294 293 293 291 291 290 290 289 289
Wind_Speed
8 4 2 2 5 3 5 10 2 6 3 3 5 8 8 4 2 3 5 16 20 15 13 14 19 19 17 16 15 14 14 14 14 15 15 14 14 14 14 14 14 14 14 14 13 16 16 15 15
4 5 1 1 4 1 7 7 14 11 6 9 7 5 4 3 3 7 12 18 19 16 12 13 19 19 17 16 15 14 14 14 14 14 14 15 14 14 14 14 14 14 14 14 14 17 15 14 15
5 5 3 4 4 6 6 5 10 1 4 6 5 6 5 5 4 9 15 21 19 15 12 14 19 18 17 16 16 15 15 14 14 15 15 15 15 15 14 16 15 15 15 14 16 16 15 15 16
1 4 4 2 10 10 13 12 9 6 8 4 7 9 4 8 14 10 21 20 18 15 12 15 18 18 17 17 16 16 15 15 15 15 15 16 16 14 17 16 15 15 16 16 16 16 16 15 16
1 1 2 4 12 12 15 8 5 3 4 11 4 4 5 3 14 18 15 17 19 14 13 14 19 18 18 17 17 16 15 15 15 15 14 18 16 16 17 16 15 15 16 16 15 15 15 14 16
1 2 3 7 12 10 13 4 3 5 8 10 5 6 3 8 18 14 17 18 18 17 13 13 18 18 18 17 16 15 15 15 14 14 17 17 16 16 16 15 15 15 15 16 15 15 14 14 15
6 1 5 6 10 13 11 3 7 5 4 10 16 6 6 8 12 11 19 18 18 17 13 10 10 13 16 17 16 14 14 15 16 17 17 17 16 16 15 14 14 14 14 14 14 14 14 14 14
4 2 3 5 8 10 7 5 9 8 6 1 7 4 8 13 13 13 19 18 17 15 14 8 7 7 6 9 15 16 17 19 18 17 17 17 16 15 14 13 12 12 12 12 13 13 14 13 12
0 2 7 8 9 8 16 5 8 4 4 2 7 16 10 20 15 12 17 17 15 14 14 12 10 9 7 7 10 16 19 17 17 16 17 14 6 7 8 11 11 11 11 11 10 9 9 11 13
4 5 6 5 9 10 15 6 3 3 3 2 8 5 23 20 18 18 18 18 17 17 16 14 12 11 10 9 7 7 9 5 5 6 7 5 6 6 7 8 11 12 11 9 8 5 4 7 5
5 11 5 10 14 15 15 14 5 6 5 8 6 4 23 20 13 15 14 17 18 19 15 16 15 14 13 10 7 5 4 4 4 7 6 8 5 5 4 3 2 2 6 3 6 7 5 7 5
7 8 9 12 17 17 14 5 4 7 6 11 10 11 16 19 16 14 14 14 16 19 19 18 17 15 13 9 7 7 6 4 4 5 8 6 4 4 4 3 2 2 1 3 4 3 5 7 7
5 6 7 8 10 11 11 5 9 8 7 13 15 18 14 9 7 5 9 13 13 16 18 18 18 16 14 11 6 6 5 6 6 6 7 6 5 5 4 3 3 3 3 4 3 4 4 4 6
6 11 8 8 10 9 11 6 4 1 8 8 6 19 19 18 13 9 9 16 14 13 16 15 16 16 14 8 8 8 6 7 6 5 6 8 6 6 5 4 3 3 3 3 3 3 4 4 3
8 7 10 8 7 10 9 13 20 1 7 10 11 12 13 19 23 22 19 20 18 15 11 15 15 16 12 13 8 6 8 6 5 4 5 7 7 7 7 5 4 3 3 5 4 4 3 4 3
5 4 4 6 6 10 7 26 6 6 8 8 12 10 9 17 19 20 13 14 16 18 15 11 12 10 11 10 6 8 7 6 5 4 4 7 7 8 5 5 4 3 4 4 4 3 4 3 3
4 6 7 8 4 6 6 20 12 9 10 15 9 13 13 10 11 9 16 9 14 18 15 16 15 12 10 9 8 6 7 5 4 5 4 6 7 7 6 5 5 5 4 3 2 2 3 3 3
10 7 7 7 7 10 10 10 15 10 12 15 12 13 14 15 17 16 18 12 9 14 17 17 12 12 10 7 6 4 5 4 3 4 5 6 5 7 7 5 6 5 4 2 2 2 2 1 1
6 8 11 12 13 8 14 15 10 9 11 9 8 8 13 15 10 16 15 15 13 7 18 22 17 15 14 7 6 4 6 6 4 4 7 7 6 6 7 5 5 5 5 4 2 3 2 2 2
8 10 10 10 7 7 13 14 11 12 8 14 12 10 12 8 8 15 19 16 15 11 13 14 17 17 14 9 4 2 3 3 4 4 6 7 7 7 6 6 5 6 5 4 3 3 2 0 1
7 7 9 14 9 3 7 11 9 14 8 12 9 6 6 9 9 1 19 20 15 15 19 16 15 15 12 10 6 3 1 4 3 3 3 5 7 7 7 6 6 5 4 4 3 4 5 3 1
9 4 8 10 5 5 2 11 9 9 14 8 9 9 10 9 5 11 10 17 13 11 10 13 13 14 10 12 8 8 9 8 4 4 3 5 7 7 7 6 6 6 4 4 4 4 3 4 4
10 16 5 6 5 2 8 2 8 5 11 7 9 9 14 15 15 11 18 14 13 14 13 13 14 14 13 11 9 6 5 3 1 2 7 5 4 6 7 7 6 5 3 3 4 4 4 3 3
1 4 8 3 2 4 5 6 6 2 3 11 14 9 13 9 7 7 6 13 14 7 11 12 14 12 12 10 12 11 13 8 5 4 5 4 4 4 4 5 5 5 6 5 4 4 5 4 3
6 4 4 5 3 2 9 3 6 11 10 10 19 13 10 12 9 12 9 8 12 14 16 14 13 12 11 9 5 7 7 9 9 7 5 5 4 3 5 5 6 5 6 6 5 5 4 3 3
6 5 1 3 6 4 10 8 6 12 11 14 8 8 13 8 6 9 9 10 10 10 10 11 12 12 8 10 7 5 7 5 5 6 4 5 4 5 5 7 7 7 6 5 5 3 2 4 3
5 3 7 2 3 3 2 6 8 13 6 15 13 17 14 12 8 8 9 9 8 8 6 12 11 10 9 9 7 6 6 7 7 7 8 6 6 6 6 7 7 6 6 5 5 3 1 2 1
2 7 1 2 6 5 7 11 6 6 7 12 11 7 13 8 7 7 6 7 7 8 8 9 8 11 10 9 8 6 7 9 10 8 9 9 7 7 7 7 6 5 4 4 4 2 1 1 2
5 3 3 4 2 3 5 6 7 9 9 10 6 11 11 4 6 8 9 9 10 9 11 10 11 11 8 7 7 8 9 9 9 9 7 7 6 7 6 5 5 4 3 3 3 2 2 2 3
3 3 4 3 4 0 1 4 6 8 8 9 8 7 6 8 8 8 8 9 8 8 9 8 8 10 9 9 8 9 10 8 8 8 7 6 7 5 6 5 5 3 2 3 3 1 2 2 4
Wind_Direction
302 269 146 355 43 76 265 256 283 284 88 133 81 85 122 43 10 185 121 129 133 140 145 141 135 129 124 121 120 117 110 103 100 99 96 91 89 87 85 82 79 77 73 70 65 88 77 65 53
313 304 249 59 110 215 267 249 272 252 151 113 74 86 62 101 76 130 113 136 138 140 137 136 134 127 126 123 121 119 116 112 108 102 99 98 96 93 90 86 80 78 76 74 75 80 74 63 52
296 248 97 148 195 205 237 231 319 41 133 125 111 86 101 130 104 133 137 138 134 141 137 140 134 131 128 126 124 121 119 117 114 112 110 105 102 98 97 85 81 77 77 75 80 81 74 60 48
296 353 347 170 241 249 238 277 292 14 347 136 119 91 74 190 157 147 141 140 134 137 136 137 135 132 132 127 127 124 121 120 119 117 116 115 102 104 91 88 82 79 80 79 81 79 69 59 53
354 106 215 243 247 257 266 259 153 261 166 303 100 119 73 49 133 140 133 125 125 129 136 135 136 135 133 130 127 125 125 126 125 128 118 105 102 94 96 92 86 82 79 78 75 77 69 62 58
308 193 199 228 256 259 266 278 91 327 0 313 345 100 108 150 135 150 124 127 127 129 134 137 138 137 135 133 132 130 130 133 120 116 112 107 107 104 101 95 90 87 85 84 84 82 75 68 63
166 145 240 245 258 273 272 109 117 103 46 310 308 98 144 153 152 143 126 130 131 132 131 133 136 139 138 137 134 130 126 127 126 121 112 110 108 104 102 98 95 92 90 88 85 82 78 71 63
130 155 227 240 250 276 285 110 115 112 119 174 265 162 180 175 162 135 126 133 132 134 130 132 132 129 131 139 133 127 127 125 122 120 117 114 110 105 101 97 99 95 93 91 87 81 78 76 59
47 237 231 227 245 270 293 2 132 228 162 188 260 250 172 156 154 137 132 136 137 139 142 144 144 145 139 132 134 131 127 127 130 131 128 110 97 96 99 106 102 99 98 98 94 90 79 50 53
176 216 243 260 262 283 297 36 138 104 82 334 258 171 142 155 160 156 151 148 148 151 152 153 158 156 148 143 129 128 132 133 141 128 104 113 114 114 108 114 113 110 104 88 77 104 105 63 54
246 244 278 291 290 290 290 306 154 155 194 150 254 282 154 156 165 160 157 156 155 158 155 163 164 159 155 146 148 143 140 155 155 136 122 130 118 109 115 106 76 53 76 21 59 57 57 76 81
260 278 244 255 266 283 287 295 247 184 182 147 126 271 180 166 164 164 163 158 156 159 164 163 165 159 151 156 158 157 160 174 131 153 145 137 125 120 137 148 160 151 145 103 69 65 72 73 78
275 261 272 289 292 289 293 266 266 198 177 177 195 172 231 154 139 167 167 160 166 159 167 164 165 161 157 154 160 155 146 141 131 128 148 131 134 145 153 157 141 135 120 98 82 81 71 67 85
290 303 287 293 290 289 290 288 288 273 185 240 211 182 189 159 176 185 204 168 170 161 162 160 156 152 150 138 154 139 134 127 127 137 147 137 140 142 144 131 122 98 112 106 103 97 99 80 83
307 312 314 300 281 274 314 290 252 219 180 188 201 203 184 179 185 185 188 172 164 158 144 145 141 145 132 134 139 129 137 130 124 123 133 131 137 144 137 138 131 129 95 101 92 55 51 71 77
304 320 281 265 253 261 147 265 306 259 264 242 213 212 190 200 195 186 177 170 160 154 152 134 123 115 126 125 114 130 130 128 136 141 137 141 144 139 143 123 130 135 113 92 83 72 57 43 39
308 262 272 300 299 283 182 258 256 229 234 253 209 221 211 191 220 155 180 156 159 158 144 129 123 117 111 97 99 90 100 106 118 127 137 143 129 132 125 133 148 130 96 95 109 64 109 74 4
308 307 299 291 306 325 299 275 275 274 223 233 239 218 219 197 201 171 171 151 162 160 137 129 114 117 102 98 101 96 107 120 140 149 151 152 140 139 130 135 139 127 117 108 102 93 28 111 77
288 290 288 295 298 312 293 289 275 279 258 236 224 197 223 214 196 158 144 149 159 150 144 148 147 144 140 145 143 151 158 174 159 170 155 158 149 142 139 144 146 136 142 161 145 109 95 2 55
298 283 286 289 277 270 289 293 294 276 258 242 227 225 217 214 147 136 143 155 169 149 161 144 147 154 155 153 164 122 148 179 150 152 167 163 157 149 149 149 159 152 133 131 143 126 115 87 51
316 295 293 278 294 272 299 292 306 296 273 264 225 189 171 139 132 237 146 160 164 175 172 154 151 151 156 144 131 108 117 90 108 151 153 182 158 163 152 159 147 158 144 172 182 157 156 179 310
311 267 284 295 330 260 214 279 280 282 282 267 231 189 160 164 173 156 208 159 177 177 158 131 145 145 163 149 151 168 175 166 170 156 158 155 160 168 164 164 161 168 174 176 184 168 164 138 199
267 296 284 279 247 308 286 248 270 281 284 322 286 201 167 179 182 208 208 162 150 147 149 150 155 160 163 155 162 163 139 112 140 146 152 143 148 161 166 159 169 164 155 160 157 125 124 141 141
289 327 297 286 189 263 212 173 276 296 322 305 328 199 153 148 138 128 138 133 143 150 154 156 159 159 159 156 174 164 170 147 156 169 156 158 152 159 166 131 120 114 110 111 112 113 109 122 120
310 39 331 338 355 282 9 146 255 321 326 325 306 274 141 148 131 108 106 129 144 154 152 155 151 146 151 150 150 199 157 143 166 177 162 150 145 133 128 129 119 112 118 114 112 97 88 82 91
312 92 282 317 331 337 353 345 320 320 327 318 352 60 65 59 75 89 102 86 93 110 147 146 145 127 141 135 170 194 155 143 166 168 149 151 135 125 116 103 108 116 111 99 87 81 79 71 54
322 355 116 322 245 303 266 203 273 284 313 22 21 66 52 33 58 73 78 83 87 93 115 116 125 127 133 124 130 120 118 114 109 91 97 96 99 108 101 104 108 106 107 117 120 122 143 113 177
261 151 42 59 0 48 17 35 15 227 132 91 51 70 60 32 35 74 82 86 73 72 82 88 99 107 114 119 111 110 100 102 100 100 98 97 97 98 102 96 102 106 103 90 87 75 1 359 303
337 340 105 131 47 8 341 356 53 73 91 95 92 106 128 136 68 77 72 68 75 74 84 92 98 100 86 98 104 100 93 89 92 97 102 105 107 106 102 112 115 104 89 77 80 46 319 345 318
302 293 98 98 330 261 209 315 345 103 99 93 80 63 79 87 88 82 79 78 74 77 84 81 79 94 101 98 89 87 91 90 93 94 96 100 107 110 123 119 115 116 108 91 89 25 331 318 310